{"data":{"norad_id":49447,"intl_designator":"2021-104AR","name":"STARLINK-3115","alt_names":[],"object_type":"PAYLOAD","status":"ACTIVE","operator":null,"country":"US","launch_date":"2021-11-13","launch_site_code":"AFETR","launch_vehicle":null,"mission":null,"orbit_class":"UNKNOWN","rcs_meters":null,"size_class":null,"mass_kg":null,"dimensions":null,"purposes":["comms"],"wikipedia_slug":null,"has_3d_model":false,"image_url":null,"decayed_at":null,"tle_current":{"epoch":"2026-09-20T02:11:47.899104Z","epoch_age_seconds":76560,"freshness":"FRESH","line1":"1 49447U 21104AR  26263.09152661 -.00000411  00000+0 -14667-5 0  9991","line2":"2 49447  53.1604  53.7367 0001308  68.4692 291.6449 15.31695673268295","mean_motion":15.31695673,"eccentricity":0.0001308,"inclination_deg":53.1604,"raan_deg":53.7367,"arg_perigee_deg":68.4692,"mean_anomaly_deg":291.6449,"bstar":-1.4667e-6,"rev_number":26829,"period_min":94.013453545873,"perigee_km":469.85705901974,"apogee_km":471.64872861597,"semimajor_km":6848.8898938179,"source":"CELESTRAK","updated_at":"2026-09-20T09:00:39.400045Z"}}}